Latest Weather Observations for Urandangi

IDQ60801

Issued at 2:35 pm EST Wednesday 22 October 2014 (issued every 30 minutes, with the page automatically refreshed every 10 minutes)

About weather observations | Map of weather stations | Latest weather observations for QLD | Other Formats
Station Details ID: 037058 Name: URANDANGI AERODROME Lat: -21.60 Lon: 138.37 Height: 178.6 m
Data from the previous 72 hours. | See also: Recent months at Urandangi
Date/Time
EST
Temp
°C
App
Temp
°C
Dew
Point
Rel
Hum
%
Delta-T
°C
Wind Press
QNH
hPa
Press
MSL
hPa
Rain
since 9 am
mm
Dir
 
Spd
km/h
Gust
km/h
Spd
kts
Gust
kts
22/02:30pm 35.9 30.6 2.1 12 17.5 NE 19 33 10 18 1015.0 1014.0 0.0
22/02:00pm 35.5 30.8 2.9 13 17.0 E 17 33 9 18 1015.6 1014.6 0.0
22/01:30pm 36.0 32.7 4.3 14 17.0 ENE 11 26 6 14 1016.1 1015.1 0.0
22/01:00pm 34.5 30.7 4.1 15 16.1 ENE 13 28 7 15 1016.7 1015.8 0.0
22/12:30pm 34.4 29.9 4.0 15 16.1 ENE 17 33 9 18 1017.2 1016.3 0.0
22/12:00pm 35.0 31.7 4.5 15 16.3 ENE 11 19 6 10 1017.5 1016.6 0.0
22/11:30am 34.1 29.1 4.7 16 15.7 NNE 20 33 11 18 1017.9 1016.9 0.0
22/11:00am 33.4 28.1 5.0 17 15.2 NE 22 33 12 18 1018.3 1017.3 0.0
22/10:30am 33.2 27.8 6.5 19 14.6 NNE 24 35 13 19 1018.6 1017.6 0.0
22/10:00am 32.2 26.3 5.7 19 14.2 NNE 26 39 14 21 1018.8 1017.8 0.0
22/09:30am 31.5 25.0 6.5 21 13.6 NE 30 39 16 21 1018.9 1017.9 0.0
22/09:00am 30.6 24.7 5.8 21 13.2 NE 26 39 14 21 1018.7 1017.7 0.0
22/08:30am 29.8 23.1 5.8 22 12.7 ENE 30 39 16 21 1018.6 1017.6 0.0
22/08:00am 28.6 22.5 4.8 22 12.3 ENE 26 35 14 19 1018.2 1017.2 0.0
22/07:30am 27.4 21.5 3.8 22 11.9 ENE 24 33 13 18 1017.9 1016.9 0.0
22/07:00am 26.0 20.8 3.3 23 11.3 ENE 20 30 11 16 1017.2 1016.3 0.0
22/06:30am 24.1 19.2 2.3 24 10.5 ENE 17 20 9 11 1016.9 1016.0 0.0
22/06:00am 23.9 18.5 1.5 23 10.6 ENE 19 22 10 12 1016.6 1015.7 0.0
22/05:30am 25.2 19.2 1.3 21 11.4 ENE 22 30 12 16 1016.2 1015.2 0.0
22/05:00am 25.1 19.4 0.6 20 11.5 ENE 20 28 11 15 1015.9 1014.9 0.0
22/04:30am 25.1 19.4 0.6 20 11.5 ENE 20 26 11 14 1015.6 1014.6 0.0
22/04:00am 24.7 19.2 0.3 20 11.4 ENE 19 22 10 12 1015.5 1014.5 0.0
22/03:30am 24.6 19.3 -0.5 19 11.5 ENE 17 22 9 12 1015.6 1014.6 0.0
22/03:00am 24.2 19.2 -0.9 19 11.4 E 15 20 8 11 1015.5 1014.5 0.0
22/02:30am 24.2 19.1 -1.6 18 11.5 ENE 15 19 8 10 1015.6 1014.6 0.0
22/02:00am 24.8 19.7 -1.9 17 11.9 ENE 15 19 8 10 1015.8 1014.8 0.0
22/01:30am 25.6 20.1 -2.1 16 12.4 ENE 17 20 9 11 1016.1 1015.1 0.0
22/01:00am 24.4 19.8 -1.4 18 11.6 ENE 13 15 7 8 1016.4 1015.5 0.0
22/12:30am 23.0 18.3 -1.8 19 10.9 E 13 15 7 8 1016.8 1015.9 0.0
22/12:00am 22.1 17.7 -2.6 19 10.6 E 11 13 6 7 1017.1 1016.2 0.0
 
Date/Time
EST
Temp
°C
App
Temp
°C
Dew
Point
Rel
Hum
%
Delta-T
°C
Wind Press
QNH
hPa
Press
MSL
hPa
Rain
since 9 am
mm
Dir
 
Spd
km/h
Gust
km/h
Spd
kts
Gust
kts
21/11:30pm 22.7 18.4 -1.4 20 10.7 E 11 11 6 6 1017.2 1016.3 0.0
21/11:00pm 22.7 18.3 -2.8 18 11.0 E 11 11 6 6 1017.3 1016.4 0.0
21/10:30pm 22.8 18.3 -3.5 17 11.2 E 11 13 6 7 1017.4 1016.5 0.0
21/10:00pm 24.5 20.4 -2.9 16 12.0 E 9 11 5 6 1017.2 1016.3 0.0
21/09:30pm 24.7 20.5 -3.6 15 12.2 ESE 9 9 5 5 1016.8 1015.9 0.0
21/09:00pm 25.7 21.5 -3.8 14 12.8 ESE 9 11 5 6 1016.4 1015.5 0.0
21/08:30pm 26.9 23.2 -2.8 14 13.3 ESE 7 7 4 4 1016.1 1015.1 0.0
21/08:00pm 28.2 24.0 -3.9 12 14.2 ESE 9 11 5 6 1015.8 1014.8 0.0
21/07:30pm 30.0 25.6 -2.5 12 15.0 ESE 11 13 6 7 1015.5 1014.5 0.0
21/07:00pm 32.6 28.1 -2.9 10 16.6 ESE 11 19 6 10 1015.1 1014.1 0.0
21/06:30pm 34.8 30.9 -1.3 10 17.6 ESE 9 17 5 9 1014.8 1013.8 0.0
21/06:00pm 35.6 30.9 -2.1 9 18.2 ESE 13 19 7 10 1014.6 1013.6 0.0
21/05:30pm 35.8 32.8 -2.0 9 18.3 NNE 4 7 2 4 1014.3 1013.3 0.0
21/05:00pm 36.4 32.1 -1.5 9 18.6 E 11 20 6 11 1014.3 1013.3 0.0
21/04:30pm 36.2 31.9 -1.7 9 18.5 NE 11 19 6 10 1014.3 1013.3 0.0
21/04:00pm 36.9 33.1 -1.1 9 18.8 E 9 22 5 12 1014.3 1013.3 0.0
21/03:30pm 35.8 31.1 -2.0 9 18.3 E 13 28 7 15 1014.4 1013.4 0.0
21/03:00pm 36.3 31.2 -1.6 9 18.5 E 15 28 8 15 1014.8 1013.8 0.0
21/02:30pm 35.7 32.1 -2.0 9 18.2 ESE 7 15 4 8 1015.3 1014.3 0.0
21/02:00pm 35.6 30.7 -0.7 10 17.9 ESE 15 20 8 11 1015.8 1014.8 0.0
21/01:30pm 36.1 32.2 -1.7 9 18.4 NE 9 20 5 11 1016.4 1015.5 0.0
21/01:00pm 35.0 30.8 -1.1 10 17.6 E 11 22 6 12 1017.0 1016.1 0.0
21/12:30pm 34.5 30.8 -0.2 11 17.2 E 9 17 5 9 1017.5 1016.6 0.0
21/12:00pm 34.8 30.1 1.2 12 17.0 E 15 28 8 15 1018.2 1017.2 0.0
21/11:30am 34.1 29.5 1.8 13 16.5 E 15 28 8 15 1018.7 1017.7 0.0
21/11:00am 33.5 27.5 1.3 13 16.2 ENE 22 30 12 16 1019.2 1018.2 0.0
21/10:30am 33.0 27.1 2.0 14 15.7 E 22 32 12 17 1019.4 1018.4 0.0
21/10:00am 32.5 27.3 2.5 15 15.3 ENE 19 28 10 15 1019.7 1018.7 0.0
21/09:30am 32.3 26.3 3.3 16 15.0 NE 24 33 13 18 1019.6 1018.6 0.0
21/09:00am 31.3 25.3 3.4 17 14.3 NE 24 32 13 17 1019.6 1018.6 0.0
21/08:30am 29.8 23.7 2.9 18 13.6 NE 24 32 13 17 1019.6 1018.6 0.0
21/08:00am 28.4 23.6 2.6 19 12.8 ENE 17 22 9 12 1019.3 1018.3 0.0
21/07:30am 26.7 21.8 1.9 20 12.1 ENE 17 20 9 11 1019.1 1018.1 0.0
21/07:00am 24.6 19.5 0.8 21 11.2 ENE 17 22 9 12 1018.7 1017.7 0.0
21/06:30am 21.9 17.5 0.4 24 9.8 ENE 13 17 7 9 1018.1 1017.1 0.0
21/06:00am 21.9 17.1 0.4 24 9.8 ENE 15 19 8 10 1017.6 1016.7 0.0
21/05:30am 20.9 16.9 0.2 25 9.3 ENE 11 15 6 8 1017.2 1016.3 0.0
21/05:00am 20.7 16.7 0.5 26 9.1 ENE 11 13 6 7 1016.7 1015.8 0.0
21/04:30am 18.1 14.2 -1.7 26 8.4 E 9 9 5 5 1016.5 1015.6 0.0
21/04:00am 19.4 15.6 -0.6 26 8.8 ENE 9 9 5 5 1016.2 1015.2 0.0
21/03:30am 19.9 16.5 -0.7 25 9.0 E 7 9 4 5 1016.1 1015.1 0.0
21/03:00am 22.1 18.0 0.0 23 10.0 E 11 13 6 7 1016.0 1015.0 0.0
21/02:30am 22.3 18.0 0.8 24 9.9 E 13 15 7 8 1016.1 1015.1 0.0
21/02:00am 20.8 16.7 -0.5 24 9.5 E 11 13 6 7 1016.3 1015.4 0.0
21/01:30am 22.0 18.3 -0.1 23 10.0 E 9 11 5 6 1016.4 1015.5 0.0
21/01:00am 24.3 19.9 0.6 21 11.0 E 13 15 7 8 1016.7 1015.8 0.0
21/12:30am 25.6 21.3 1.0 20 11.7 E 13 17 7 9 1016.8 1015.9 0.0
21/12:00am 24.2 20.1 -0.2 20 11.2 E 11 15 6 8 1017.0 1016.1 0.0
 
Date/Time
EST
Temp
°C
App
Temp
°C
Dew
Point
Rel
Hum
%
Delta-T
°C
Wind Press
QNH
hPa
Press
MSL
hPa
Rain
since 9 am
mm
Dir
 
Spd
km/h
Gust
km/h
Spd
kts
Gust
kts
20/11:30pm 24.4 20.6 -0.7 19 11.4 E 9 11 5 6 1017.1 1016.2 0.0
20/11:00pm 23.4 19.4 -2.2 18 11.2 E 9 9 5 5 1017.1 1016.2 0.0
20/10:30pm 24.7 20.7 -2.0 17 11.9 E 9 11 5 6 1017.1 1016.2 0.0
20/10:00pm 24.4 20.4 -2.2 17 11.8 E 9 9 5 5 1016.9 1016.0 0.0
20/09:30pm 24.5 19.8 -4.7 14 12.4 E 11 15 6 8 1016.7 1015.8 0.0
20/09:00pm 24.4 19.6 -5.8 13 12.5 E 11 13 6 7 1016.3 1015.4 0.0
20/08:30pm 25.9 21.1 -5.6 12 13.3 ESE 11 13 6 7 1016.0 1015.0 0.0
20/08:00pm 28.1 24.3 -3.9 12 14.2 ESE 7 9 4 5 1015.8 1014.8 0.0
20/07:30pm 29.7 25.0 -5.1 10 15.3 ESE 11 13 6 7 1015.4 1014.4 0.0
20/07:00pm 32.4 27.4 -4.5 9 16.7 ESE 13 17 7 9 1015.1 1014.1 0.0
20/06:30pm 34.0 28.9 -4.9 8 17.7 ESE 13 19 7 10 1014.8 1013.8 0.0
20/06:00pm 35.3 30.0 -3.9 8 18.3 E 15 19 8 10 1014.5 1013.5 0.0
20/05:30pm 35.7 30.4 -3.6 8 18.5 ESE 15 24 8 13 1014.2 1013.2 0.0
20/05:00pm 36.2 30.9 -3.3 8 18.8 ESE 15 28 8 15 1014.2 1013.2 0.0
20/04:30pm 36.2 30.6 -3.3 8 18.8 E 17 28 9 15 1014.2 1013.2 0.0
20/04:00pm 36.6 31.7 -3.0 8 19.0 ESE 13 24 7 13 1014.5 1013.5 0.0
20/03:30pm 36.4 31.4 -1.5 9 18.6 E 15 20 8 11 1014.7 1013.7 0.0
20/03:00pm 36.0 30.5 -1.8 9 18.4 ESE 17 28 9 15 1015.1 1014.1 0.0
20/02:30pm 36.0 30.2 -0.4 10 18.1 ESE 20 24 11 13 1015.4 1014.4 0.0
20/02:00pm 35.6 30.9 0.6 11 17.6 ENE 15 26 8 14 1015.8 1014.8 0.0
20/01:30pm 35.1 30.3 0.2 11 17.4 ESE 15 26 8 14 1016.5 1015.6 0.0
20/01:00pm 35.0 30.6 0.2 11 17.3 E 13 20 7 11 1017.1 1016.2 0.0
20/12:30pm 34.3 30.2 2.0 13 16.5 NE 13 24 7 13 1017.6 1016.7 0.0
20/12:00pm 33.5 29.2 3.3 15 15.7 E 15 30 8 16 1018.3 1017.3 0.0
20/11:30am 33.2 29.4 4.0 16 15.3 ENE 13 44 7 24 1018.8 1017.8 0.0
20/11:00am 33.1 28.3 4.8 17 15.0 ENE 19 28 10 15 1019.2 1018.2 0.0
20/10:30am 32.5 27.2 5.1 18 14.6 ENE 22 30 12 16 1019.6 1018.6 0.0
20/10:00am 31.9 26.1 4.6 18 14.3 ENE 24 35 13 19 1020.0 1019.0 0.0
20/09:30am 31.3 24.8 4.9 19 13.9 NE 28 37 15 20 1020.2 1019.2 0.0
20/09:00am 30.1 23.0 5.4 21 13.0 NE 32 41 17 22 1020.1 1019.1 0.0
20/08:30am 29.1 23.0 4.6 21 12.7 ENE 26 37 14 20 1020.2 1019.2 0.0
20/08:00am 28.2 23.9 5.1 23 12.0 ENE 17 24 9 13 1019.8 1018.8 0.0
20/07:30am 26.3 22.6 4.7 25 11.0 ENE 13 17 7 9 1019.6 1018.6 0.0
20/07:00am 23.9 20.2 4.3 28 9.8 ENE 13 17 7 9 1019.2 1018.2 0.0
20/06:30am 21.8 17.9 3.5 30 8.9 ENE 13 17 7 9 1018.7 1017.7 0.0
20/06:00am 20.2 16.5 2.1 30 8.4 ENE 11 13 6 7 1018.2 1017.2 0.0
20/05:30am 21.8 17.8 3.0 29 9.0 ENE 13 15 7 8 1017.6 1016.7 0.0
20/05:00am 23.2 18.9 3.2 27 9.7 ENE 15 17 8 9 1017.3 1016.4 0.0
20/04:30am 23.6 19.3 3.0 26 10.0 ENE 15 19 8 10 1016.8 1015.9 0.0
20/04:00am 24.1 19.6 2.3 24 10.5 ENE 15 19 8 10 1016.7 1015.8 0.0
20/03:30am 23.2 19.0 1.5 24 10.2 ENE 13 17 7 9 1016.5 1015.6 0.0
20/03:00am 22.8 18.3 0.0 22 10.4 ENE 13 15 7 8 1016.5 1015.6 0.0
20/02:30am 21.8 17.7 -0.2 23 9.9 ENE 11 13 6 7 1016.7 1015.8 0.0
20/02:00am 20.6 16.7 -1.2 23 9.5 E 9 11 5 6 1017.0 1016.1 0.0
20/01:30am 22.2 18.1 -0.5 22 10.2 E 11 13 6 7 1017.1 1016.2 0.0
20/01:00am 23.6 19.1 -0.6 20 11.0 E 13 13 7 7 1017.2 1016.3 0.0
20/12:30am 24.9 20.0 -0.3 19 11.6 E 15 17 8 9 1017.2 1016.3 0.0
20/12:00am 24.1 19.6 -0.2 20 11.1 E 13 15 7 8 1017.3 1016.4 0.0
 
Date/Time
EST
Temp
°C
App
Temp
°C
Dew
Point
Rel
Hum
%
Delta-T
°C
Wind Press
QNH
hPa
Press
MSL
hPa
Rain
since 9 am
mm
Dir
 
Spd
km/h
Gust
km/h
Spd
kts
Gust
kts
19/11:30pm 22.8 18.5 -1.3 20 10.7 E 11 13 6 7 1017.4 1016.5 0.0
19/11:00pm 23.9 19.7 -1.1 19 11.2 E 11 13 6 7 1017.6 1016.7 0.0
19/10:30pm 24.5 20.2 -1.3 18 11.6 E 11 13 6 7 1017.5 1016.6 0.0
19/10:00pm 24.6 20.1 -2.9 16 12.0 E 11 13 6 7 1017.4 1016.5 0.0
19/09:30pm 26.2 21.9 -1.6 16 12.6 E 11 13 6 7 1017.1 1016.2 0.0
19/09:00pm 24.6 19.7 -3.7 15 12.2 E 13 13 7 7 1016.8 1015.9 0.0
19/08:30pm 26.1 21.9 -3.5 14 13.0 E 9 11 5 6 1016.4 1015.5 0.0
19/08:00pm 27.4 22.9 -3.4 13 13.7 ESE 11 11 6 6 1016.1 1015.1 0.0
19/07:30pm 29.4 24.8 -4.1 11 14.9 E 11 13 6 7 1015.8 1014.8 0.0
19/07:00pm 32.0 27.1 -3.4 10 16.3 ESE 13 17 7 9 1015.4 1014.4 0.0
19/06:30pm 34.0 29.1 -3.3 9 17.5 ESE 13 19 7 10 1015.0 1014.0 0.0
19/06:00pm 35.1 29.5 -2.5 9 18.0 ESE 17 24 9 13 1014.6 1013.6 0.0
19/05:30pm 36.0 30.3 -3.4 8 18.7 E 17 24 9 13 1014.3 1013.3 0.0
19/05:00pm 36.6 31.4 -3.0 8 19.0 SE 15 24 8 13 1014.1 1013.1 0.0
19/04:30pm 36.4 31.5 -3.1 8 18.9 ESE 13 28 7 15 1014.0 1013.0 0.0
19/04:00pm 35.9 32.3 -3.5 8 18.6 E 6 24 3 13 1014.1 1013.1 0.0
19/03:30pm 36.3 32.2 -3.2 8 18.8 NE 9 19 5 10 1014.3 1013.3 0.0
19/03:00pm 36.7 30.7 -2.9 8 19.0 ESE 19 26 10 14 1014.6 1013.6 0.0

Other Formats:

Comma delimited format used in spreadsheet applications
http://www.bom.gov.au/fwo/IDQ60801/IDQ60801.94344.axf

JavaScript Object Notation format (JSON) in row-major order
http://www.bom.gov.au/fwo/IDQ60801/IDQ60801.94344.json